When you browse on this site, cookies collect data to enhance your experience and personalize the content and advertising you see.
Visit our Privacy Policy to learn more. By continuing to use the site, you agree to this use of cookies and data.
  • In Lithuania
  • List of Countries
  • For 7 days
  • Water Temperature
  • Weather Map
  • Weather Widgets
  • user-avatar
    Login

    Hourly Weather Asuan

    Today, 13 November, Wednesday

    Time Temperature Precipitation Wind Pressure Humidity
    00:00 +27°C° 0 mm 3 mps 740 mmHg 49%
    01:00 +26°C° 0 mm 3 mps 739 mmHg 58%
    02:00 +25°C° 0 mm 3 mps 739 mmHg 67%
    03:00 +25°C° 0 mm 3 mps 739 mmHg 71%
    04:00 +25°C° 0 mm 3 mps 740 mmHg 74%
    05:00 +25°C° 0 mm 3 mps 740 mmHg 77%
    06:00 +26°C° 0 mm 3 mps 740 mmHg 74%
    07:00 +27°C° 0 mm 3 mps 740 mmHg 71%
    08:00 +28°C° 0 mm 3 mps 740 mmHg 67%
    09:00 +29°C° 0 mm 3 mps 740 mmHg 60%
    10:00 +31°C° 0 mm 3 mps 740 mmHg 53%
    11:00 +34°C° 0 mm 2 mps 740 mmHg 46%
    12:00 +35°C° 0 mm 2 mps 739 mmHg 41%
    13:00 +35°C° 0 mm 1 mps 739 mmHg 35%
    14:00 +36°C° 0 mm 1 mps 738 mmHg 29%
    15:00 +35°C° 0 mm 1 mps 738 mmHg 30%
    16:00 +35°C° 0 mm 2 mps 738 mmHg 32%
    17:00 +34°C° 0 mm 2 mps 739 mmHg 33%
    18:00 +32°C° 0 mm 2 mps 739 mmHg 34%
    19:00 +31°C° 0 mm 3 mps 739 mmHg 35%
    20:00 +31°C° 0 mm 3 mps 740 mmHg 36%
    21:00 +30°C° 0 mm 3 mps 740 mmHg 38%
    22:00 +30°C° 0 mm 3 mps 740 mmHg 40%
    23:00 +29°C° 0 mm 4 mps 740 mmHg 42%

    Tomorrow, 14 November, Thursday

    Time Temperature Precipitation Wind Pressure Humidity
    00:00 +28°C° 0 mm 3 mps 740 mmHg 48%
    01:00 +28°C° 0 mm 2 mps 740 mmHg 53%
    02:00 +27°C° 0 mm 2 mps 740 mmHg 58%
    03:00 +27°C° 0 mm 2 mps 740 mmHg 59%
    04:00 +26°C° 0 mm 2 mps 740 mmHg 61%
    05:00 +26°C° 0 mm 2 mps 740 mmHg 63%
    06:00 +27°C° 0 mm 2 mps 741 mmHg 59%
    07:00 +28°C° 0 mm 2 mps 741 mmHg 56%
    08:00 +30°C° 0 mm 2 mps 741 mmHg 52%
    09:00 +31°C° 0 mm 2 mps 741 mmHg 48%
    10:00 +34°C° 0 mm 2 mps 741 mmHg 44%
    11:00 +35°C° 0 mm 2 mps 741 mmHg 39%
    12:00 +36°C° 0 mm 2 mps 740 mmHg 34%
    13:00 +37°C° 0 mm 2 mps 740 mmHg 29%
    14:00 +38°C° 0 mm 2 mps 739 mmHg 24%
    15:00 +37°C° 0 mm 2 mps 739 mmHg 25%
    16:00 +36°C° 0 mm 2 mps 739 mmHg 26%
    17:00 +35°C° 0 mm 3 mps 739 mmHg 27%
    18:00 +34°C° 0 mm 3 mps 740 mmHg 28%
    19:00 +33°C° 0 mm 3 mps 740 mmHg 29%
    20:00 +31°C° 0 mm 3 mps 741 mmHg 29%
    21:00 +30°C° 0 mm 4 mps 741 mmHg 30%
    22:00 +29°C° 0 mm 4 mps 742 mmHg 30%
    23:00 +29°C° 0 mm 5 mps 742 mmHg 30%

    Day after tomorrow, 15 November, Friday

    Time Temperature Precipitation Wind Pressure Humidity
    00:00 +28°C° 0 mm 5 mps 742 mmHg 31%
    01:00 +27°C° 0 mm 6 mps 742 mmHg 31%
    02:00 +27°C° 0 mm 6 mps 742 mmHg 32%
    03:00 +26°C° 0 mm 6 mps 742 mmHg 34%
    04:00 +25°C° 0 mm 5 mps 742 mmHg 36%
    05:00 +23°C° 0 mm 5 mps 742 mmHg 38%
    06:00 +25°C° 0 mm 5 mps 742 mmHg 37%
    07:00 +26°C° 0 mm 6 mps 743 mmHg 36%
    08:00 +27°C° 0 mm 6 mps 743 mmHg 36%
    09:00 +29°C° 0 mm 6 mps 743 mmHg 34%
    10:00 +32°C° 0 mm 5 mps 743 mmHg 31%
    11:00 +34°C° 0 mm 5 mps 743 mmHg 29%
    12:00 +35°C° 0 mm 5 mps 742 mmHg 27%
    13:00 +36°C° 0 mm 4 mps 741 mmHg 25%
    14:00 +37°C° 0 mm 4 mps 740 mmHg 23%
    15:00 +35°C° 0 mm 4 mps 741 mmHg 24%
    16:00 +34°C° 0 mm 4 mps 741 mmHg 25%
    17:00 +33°C° 0 mm 4 mps 741 mmHg 27%
    18:00 +32°C° 0 mm 5 mps 741 mmHg 29%
    19:00 +29°C° 0 mm 6 mps 742 mmHg 30%
    20:00 +28°C° 0 mm 7 mps 742 mmHg 32%
    21:00 +27°C° 0 mm 7 mps 742 mmHg 35%
    22:00 +26°C° 0 mm 7 mps 742 mmHg 37%
    23:00 +24°C° 0 mm 7 mps 742 mmHg 39%

    16 November, Saturday

    Time Temperature Precipitation Wind Pressure Humidity
    00:00 +23°C° 0 mm 7 mps 742 mmHg 43%
    01:00 +23°C° 0 mm 6 mps 742 mmHg 46%
    02:00 +22°C° 0 mm 6 mps 742 mmHg 50%
    03:00 +21°C° 0 mm 6 mps 742 mmHg 53%
    04:00 +21°C° 0 mm 6 mps 742 mmHg 56%
    05:00 +20°C° 0 mm 6 mps 742 mmHg 60%
    06:00 +21°C° 0 mm 6 mps 742 mmHg 57%
    07:00 +22°C° 0 mm 6 mps 742 mmHg 54%
    08:00 +22°C° 0 mm 6 mps 743 mmHg 52%
    09:00 +25°C° 0 mm 5 mps 742 mmHg 44%
    10:00 +27°C° 0 mm 5 mps 742 mmHg 37%
    11:00 +29°C° 0 mm 4 mps 742 mmHg 30%
    12:00 +30°C° 0 mm 4 mps 741 mmHg 25%
    13:00 +31°C° 0 mm 3 mps 741 mmHg 21%
    14:00 +33°C° 0 mm 3 mps 740 mmHg 17%
    15:00 +30°C° 0 mm 3 mps 740 mmHg 18%
    16:00 +29°C° 0 mm 3 mps 740 mmHg 19%
    17:00 +28°C° 0 mm 4 mps 740 mmHg 21%
    18:00 +26°C° 0 mm 4 mps 740 mmHg 22%
    19:00 +25°C° 0 mm 4 mps 741 mmHg 23%
    20:00 +22°C° 0 mm 5 mps 741 mmHg 25%
    21:00 +22°C° 0 mm 5 mps 741 mmHg 28%
    22:00 +21°C° 0 mm 5 mps 741 mmHg 31%
    23:00 +20°C° 0 mm 5 mps 741 mmHg 34%

    17 November, Sunday

    Time Temperature Precipitation Wind Pressure Humidity
    00:00 +20°C° 0 mm 5 mps 741 mmHg 37%
    01:00 +19°C° 0 mm 5 mps 741 mmHg 41%
    02:00 +17°C° 0 mm 5 mps 741 mmHg 44%
    03:00 +18°C° 0 mm 4 mps 741 mmHg 46%
    04:00 +18°C° 0 mm 4 mps 741 mmHg 48%
    05:00 +17°C° 0 mm 3 mps 741 mmHg 50%
    06:00 +18°C° 0 mm 4 mps 741 mmHg 49%
    07:00 +20°C° 0 mm 4 mps 742 mmHg 48%
    08:00 +21°C° 0 mm 4 mps 742 mmHg 48%
    09:00 +23°C° 0 mm 4 mps 742 mmHg 42%
    10:00 +26°C° 0 mm 4 mps 742 mmHg 37%
    11:00 +28°C° 0 mm 3 mps 742 mmHg 31%
    12:00 +29°C° 0 mm 3 mps 741 mmHg 27%
    13:00 +30°C° 0 mm 3 mps 741 mmHg 22%
    14:00 +31°C° 0 mm 3 mps 740 mmHg 18%
    15:00 +29°C° 0 mm 3 mps 740 mmHg 19%
    16:00 +28°C° 0 mm 3 mps 741 mmHg 19%
    17:00 +27°C° 0 mm 3 mps 741 mmHg 20%
    18:00 +26°C° 0 mm 4 mps 741 mmHg 21%
    19:00 +23°C° 0 mm 4 mps 742 mmHg 23%
    20:00 +22°C° 0 mm 4 mps 742 mmHg 24%
    21:00 +22°C° 0 mm 4 mps 742 mmHg 27%
    22:00 +21°C° 0 mm 4 mps 742 mmHg 30%
    23:00 +20°C° 0 mm 4 mps 742 mmHg 32%

    18 November, Monday

    Time Temperature Precipitation Wind Pressure Humidity
    00:00 +20°C° 0 mm 4 mps 742 mmHg 34%
    01:00 +19°C° 0 mm 4 mps 742 mmHg 37%
    02:00 +18°C° 0 mm 4 mps 742 mmHg 39%
    03:00 +18°C° 0 mm 3 mps 742 mmHg 39%
    04:00 +17°C° 0 mm 3 mps 742 mmHg 40%
    05:00 +17°C° 0 mm 3 mps 742 mmHg 40%
    06:00 +18°C° 0 mm 3 mps 742 mmHg 38%
    07:00 +20°C° 0 mm 3 mps 743 mmHg 35%
    08:00 +21°C° 0 mm 3 mps 743 mmHg 33%
    09:00 +24°C° 0 mm 3 mps 743 mmHg 29%
    10:00 +26°C° 0 mm 2 mps 743 mmHg 26%
    11:00 +28°C° 0 mm 2 mps 743 mmHg 22%
    12:00 +29°C° 0 mm 2 mps 742 mmHg 19%
    13:00 +30°C° 0 mm 2 mps 742 mmHg 17%
    14:00 +31°C° 0 mm 2 mps 741 mmHg 14%
    15:00 +30°C° 0 mm 3 mps 741 mmHg 15%
    16:00 +28°C° 0 mm 3 mps 741 mmHg 17%
    17:00 +27°C° 0 mm 3 mps 741 mmHg 19%
    18:00 +26°C° 0 mm 3 mps 742 mmHg 22%
    19:00 +25°C° 0 mm 3 mps 742 mmHg 24%
    20:00 +24°C° 0 mm 3 mps 742 mmHg 27%
    21:00 +22°C° 0 mm 4 mps 743 mmHg 28%
    22:00 +22°C° 0 mm 4 mps 743 mmHg 30%
    23:00 +21°C° 0 mm 4 mps 743 mmHg 31%
    Show more